Wind_Speed
29 29 30 31 32 32 29 27 27 27 28 28 29 29 29 30 31 33 31 29 28 28 28 29 30 29 29 28 28 27 27 26 25 23 21 19 18 18 17 17 16 15 14 13 12 11 11 10 10
32 32 34 34 35 33 30 30 30 30 31 31 32 32 32 32 33 34 33 31 30 30 30 31 31 31 31 30 29 29 29 28 27 25 23 22 20 19 19 18 18 17 16 15 14 13 12 12 12
35 36 37 38 37 36 34 33 34 34 35 35 34 34 35 35 35 36 35 33 32 32 32 33 34 33 33 32 31 31 30 30 29 27 26 24 22 21 20 20 19 19 18 16 15 14 14 13 13
38 39 40 41 39 37 37 37 38 38 38 38 38 38 38 37 37 37 37 36 35 35 35 35 35 35 35 34 33 33 32 32 30 30 28 26 25 23 22 22 21 20 19 18 17 16 15 15 14
41 42 44 43 41 40 41 40 41 42 41 40 41 41 41 40 39 39 39 39 37 37 37 37 37 37 37 36 35 35 34 33 32 32 31 29 27 25 24 23 23 22 21 20 18 17 17 16 15
44 45 47 46 44 44 44 44 44 45 43 43 43 44 43 43 42 42 42 41 40 39 39 39 39 39 39 39 38 37 36 35 34 34 33 31 29 28 26 25 24 23 22 21 20 19 18 17 17
45 47 48 48 48 47 46 46 47 47 46 46 46 46 46 45 45 44 44 43 43 42 42 41 41 41 41 41 40 39 38 37 36 35 34 33 32 30 29 27 26 25 24 23 22 21 19 19 18
46 49 49 49 49 49 48 49 49 50 49 48 49 49 49 49 49 47 47 46 45 45 44 44 44 43 43 43 42 41 40 39 38 37 36 35 34 32 31 29 28 27 25 24 23 22 21 20 19
46 49 49 50 51 51 50 51 51 52 51 51 52 52 52 52 52 50 50 49 48 47 47 46 46 46 45 44 44 44 42 41 41 39 38 37 36 34 33 31 29 28 27 26 24 23 22 21 21
44 47 48 49 50 51 51 52 52 53 53 53 54 53 54 54 54 53 52 51 50 49 49 48 48 48 47 46 46 46 45 43 43 41 40 38 37 36 34 32 31 30 29 27 26 25 24 23 22
42 45 46 47 48 50 51 52 52 54 55 54 55 54 55 56 55 55 54 53 53 52 51 51 50 49 49 49 48 47 47 46 44 43 42 40 39 38 36 34 33 32 30 29 28 26 25 24 24
41 42 44 45 46 47 49 50 51 53 55 55 56 56 56 56 58 57 56 55 54 54 54 54 52 52 51 50 49 49 49 48 46 45 44 42 41 39 37 36 34 33 32 31 29 28 27 26 25
38 39 40 42 43 44 46 47 49 52 54 55 55 57 58 58 58 58 58 57 57 56 56 56 55 54 53 52 52 50 50 49 48 47 46 44 42 40 38 37 36 35 33 32 31 29 28 27 26
37 38 38 38 40 40 43 44 47 49 51 53 52 55 55 56 57 57 58 58 58 58 58 58 57 56 55 55 54 53 51 50 49 48 47 45 43 42 40 38 38 36 35 34 32 31 30 28 27
36 36 35 35 37 37 40 41 42 43 47 51 51 52 52 53 54 55 57 56 56 57 59 59 59 58 57 56 55 55 54 52 51 50 48 46 45 43 41 40 39 37 36 35 33 32 31 30 29
34 33 33 33 34 34 38 39 38 40 44 47 48 49 50 50 51 51 53 55 55 55 57 58 59 59 58 57 57 56 55 54 53 51 49 47 46 44 43 42 41 39 37 36 34 33 32 31 30
32 32 32 31 32 33 36 37 36 38 40 42 45 47 47 47 48 49 50 53 54 54 55 56 58 58 58 58 58 58 56 55 54 53 51 49 47 46 45 43 41 40 38 37 35 34 33 32 31
33 33 33 31 29 32 34 35 34 35 38 39 40 41 42 43 43 45 46 49 51 51 53 54 56 56 57 58 58 59 58 56 54 53 52 50 48 47 46 44 42 41 39 38 36 35 34 33 32
34 34 34 31 29 32 33 33 31 32 34 36 37 37 39 39 40 41 42 45 46 48 50 53 54 55 56 57 59 59 59 57 55 54 53 50 49 48 47 45 43 42 40 38 37 36 35 34 33
33 33 33 30 29 31 31 31 29 30 31 32 33 34 35 35 36 38 40 41 43 45 47 50 53 53 55 57 58 59 58 58 56 54 53 51 49 48 47 46 44 43 41 39 38 37 36 34 33
33 33 33 31 28 26 27 27 25 26 28 28 30 32 32 33 34 34 36 38 41 43 44 48 51 52 54 56 57 59 58 57 56 54 53 52 49 48 47 46 45 44 42 40 39 38 36 36 35
32 32 32 31 28 27 27 29 24 22 23 24 25 28 27 28 31 33 35 35 38 41 42 46 50 52 53 55 57 58 59 57 55 53 53 52 51 49 48 47 46 45 43 42 40 39 38 37 36
32 32 31 30 28 29 25 27 24 21 21 20 22 24 25 26 28 31 33 33 36 39 40 44 47 50 53 54 56 57 58 56 54 54 54 52 51 50 49 48 47 46 45 43 42 40 39 38 37
32 31 31 29 28 28 25 25 24 21 20 19 20 23 24 25 26 29 31 33 34 38 39 42 45 48 51 53 55 56 56 57 55 54 53 51 51 49 47 47 46 46 45 44 42 41 40 39 38
32 31 31 30 29 27 24 23 23 22 21 20 20 21 23 22 25 28 31 31 33 36 38 41 45 47 50 52 54 55 55 56 54 54 53 52 49 48 48 47 47 46 45 44 43 42 40 39 38
33 31 31 30 29 26 22 22 22 22 20 19 19 20 21 21 23 26 28 30 32 34 37 40 43 46 49 52 53 54 53 55 54 53 52 51 49 47 47 46 47 46 45 44 43 42 41 40 39
32 31 30 30 29 28 26 24 23 21 20 20 20 20 21 22 23 25 27 30 31 32 34 38 41 43 47 50 53 54 53 54 53 53 52 50 48 46 46 46 47 46 45 44 43 42 41 40 39
32 30 29 29 29 29 27 26 23 21 21 21 21 22 22 22 23 24 25 27 30 32 34 36 39 42 45 48 50 52 52 52 52 52 51 50 47 46 46 46 46 46 45 44 43 42 41 40 39
33 31 30 30 29 29 28 26 25 22 22 22 22 23 23 23 24 25 26 27 29 31 33 35 39 41 43 47 49 50 51 52 51 51 51 51 49 46 46 45 46 45 45 44 43 42 41 40 39
34 32 31 30 29 28 29 28 25 24 23 23 23 24 24 24 25 25 26 27 28 31 34 35 38 40 42 45 48 50 50 52 51 51 51 51 49 47 47 46 45 44 44 44 43 42 41 40 39
Wind_Direction
273 272 270 268 268 267 268 268 267 265 264 262 260 259 258 257 256 255 255 253 249 247 244 242 240 239 238 237 236 235 235 236 237 237 238 240 243 244 245 244 244 245 249 253 257 262 267 272 279
273 271 270 269 268 268 269 269 267 265 263 261 259 258 257 256 256 257 256 254 250 247 246 244 242 240 239 238 237 236 236 236 237 238 239 240 242 244 245 244 244 245 248 251 256 262 265 270 276
272 271 270 269 268 270 271 270 268 265 263 262 260 257 255 255 255 256 256 255 251 248 246 245 244 242 240 238 238 237 237 236 237 238 239 241 242 244 245 244 244 245 247 251 255 261 265 269 273
272 271 270 269 270 271 270 269 267 265 263 262 260 257 256 255 255 256 256 255 251 248 246 245 244 243 241 240 239 238 238 237 237 238 240 242 243 243 244 244 244 245 247 250 255 260 263 266 271
273 271 271 270 271 271 269 267 266 265 263 262 260 258 257 255 254 254 254 253 251 249 247 245 244 243 242 241 240 239 238 238 238 238 240 242 243 243 243 244 244 245 246 249 254 259 262 265 268
274 273 272 272 272 271 269 267 265 264 263 261 259 257 256 256 255 253 253 252 250 248 247 245 243 243 242 241 241 240 239 239 239 239 240 242 242 242 243 244 244 244 246 249 253 258 261 263 266
275 274 274 273 272 270 269 267 264 263 261 260 258 257 255 255 254 253 252 251 250 248 246 245 244 242 241 241 240 240 240 239 239 240 240 241 241 241 242 244 244 243 245 248 252 257 259 262 265
277 275 274 273 271 269 268 265 263 261 259 257 256 256 254 253 254 253 252 251 249 248 246 244 244 243 241 240 240 240 240 240 240 240 240 240 241 241 242 243 243 243 245 248 252 255 257 260 264
278 276 274 272 271 269 266 264 262 260 259 256 255 255 254 253 253 252 252 252 249 247 245 244 243 242 241 240 239 239 239 240 240 240 240 240 240 241 242 243 243 243 245 248 251 253 256 259 263
280 278 275 273 271 270 267 264 261 259 257 256 254 253 253 253 252 252 251 251 250 247 245 243 242 241 241 240 239 238 238 239 240 240 240 240 240 241 241 242 242 243 245 247 250 253 255 258 262
283 280 277 274 272 270 268 264 261 258 256 255 254 252 252 252 251 251 250 249 248 247 245 243 241 240 239 239 238 238 238 238 239 239 239 240 240 241 241 241 242 243 245 247 250 253 255 258 261
287 284 279 276 273 270 267 264 262 259 257 255 253 253 252 251 251 250 249 248 247 246 244 242 241 239 238 238 237 237 237 237 237 238 238 239 240 240 242 241 241 243 245 247 249 253 255 257 260
291 289 284 279 275 272 269 266 263 260 258 256 254 253 253 252 251 250 248 247 246 245 243 241 240 239 237 236 236 235 235 235 236 238 237 237 239 240 241 241 241 242 245 247 249 252 255 257 260
296 293 289 283 277 275 272 269 266 264 261 257 256 254 253 253 250 248 246 246 244 243 242 240 239 238 236 235 234 234 234 234 235 236 236 237 238 239 240 240 241 242 244 246 249 252 255 257 260
302 298 294 289 282 279 276 273 270 270 265 259 256 255 252 251 249 248 246 245 244 242 240 239 237 236 235 234 232 232 232 232 234 235 235 235 237 238 239 240 241 242 243 246 248 251 254 257 260
308 307 301 295 290 285 282 280 276 272 267 262 259 257 254 253 250 248 247 245 242 241 239 237 235 234 232 231 230 230 230 230 232 234 234 234 235 237 238 239 240 241 243 245 248 250 253 257 260
311 310 307 302 294 290 288 286 280 277 271 266 263 261 257 254 252 248 246 244 241 239 237 234 233 232 230 228 228 228 228 229 231 232 233 233 234 236 238 238 239 241 242 244 247 250 253 256 259
316 313 312 309 300 294 293 291 286 280 274 269 264 261 256 252 250 248 244 242 239 237 234 232 231 229 228 227 226 226 226 227 228 230 232 233 233 235 236 237 238 240 242 244 246 250 252 256 259
322 320 317 312 306 300 298 294 290 283 275 269 264 260 255 251 248 246 242 239 236 234 231 230 229 227 226 225 224 224 225 225 226 229 230 231 233 233 235 237 237 239 242 243 246 250 252 255 259
325 323 321 315 310 305 300 296 294 288 279 272 265 260 254 248 245 240 238 235 234 234 231 229 227 225 224 223 223 223 223 224 226 228 228 229 232 233 234 236 237 238 241 244 246 249 252 255 258
328 325 325 321 314 311 308 304 300 292 282 274 266 260 254 247 243 239 236 234 233 232 231 228 226 224 223 222 222 221 221 223 226 228 229 230 232 233 232 234 236 238 241 244 247 249 252 255 258
329 327 327 325 320 319 316 311 310 301 291 280 269 260 253 245 239 236 235 235 233 231 230 227 225 224 222 221 221 220 221 223 226 228 229 231 232 232 233 234 236 238 241 244 247 249 252 255 258
332 331 328 325 322 321 319 312 316 306 299 288 275 262 253 244 238 234 233 234 232 230 230 227 225 224 223 222 221 220 220 222 225 228 229 229 231 231 233 234 236 238 240 243 246 249 252 255 258
333 331 330 327 326 325 323 318 323 314 306 292 279 266 255 244 236 234 236 234 230 229 229 228 225 224 223 222 221 221 221 222 225 227 228 228 231 232 234 235 237 238 240 242 245 248 251 254 258
331 331 332 333 332 331 325 319 321 314 309 297 286 274 262 251 237 236 240 237 231 229 230 229 226 224 222 221 221 221 223 224 224 226 228 229 230 233 235 236 237 239 240 241 244 247 251 254 258
331 330 330 329 329 328 322 318 315 312 306 298 291 279 264 253 240 238 241 237 233 231 231 229 227 226 223 222 220 220 223 224 224 225 227 228 229 232 235 235 237 239 240 242 245 247 250 254 257
329 329 327 325 324 322 321 318 313 309 300 293 287 278 268 258 247 241 241 237 235 234 231 229 227 225 223 222 221 221 223 224 224 225 226 227 228 231 234 235 236 238 240 243 245 247 251 254 257
328 327 325 323 321 319 317 316 317 310 300 294 286 278 271 263 255 249 245 240 237 235 232 230 229 226 224 223 222 222 223 223 224 226 226 226 228 230 233 234 235 238 240 242 246 249 251 254 258
327 325 323 321 320 316 314 314 314 308 301 295 288 281 274 267 262 255 249 243 240 236 232 232 230 226 225 225 224 224 223 223 225 226 227 228 229 231 233 234 236 238 241 243 247 249 251 255 258
324 322 320 316 314 311 308 312 313 306 298 293 287 280 273 268 262 256 250 246 242 238 236 234 231 228 228 227 226 225 225 225 226 226 227 229 230 231 233 235 237 238 242 244 247 250 253 255 258
Height
5808 5808 5808 5808 5809 5809 5811 5814 5815 5816 5817 5818 5820 5821 5823 5824 5826 5828 5829 5831 5834 5837 5839 5841 5843 5845 5847 5849 5851 5853 5855 5857 5859 5860 5862 5863 5864 5865 5866 5867 5868 5869 5869 5870 5870 5871 5871 5871 5870
5802 5802 5802 5801 5801 5802 5806 5808 5809 5810 5811 5812 5813 5815 5817 5818 5819 5820 5822 5825 5829 5831 5834 5836 5838 5840 5842 5845 5847 5849 5851 5853 5855 5857 5858 5860 5861 5863 5864 5865 5866 5867 5867 5868 5869 5869 5869 5869 5868
5794 5793 5794 5794 5794 5796 5800 5801 5802 5802 5803 5804 5806 5808 5810 5812 5813 5813 5816 5819 5822 5825 5829 5831 5833 5835 5837 5840 5842 5845 5847 5849 5851 5853 5855 5856 5858 5859 5861 5862 5863 5864 5865 5866 5866 5867 5867 5867 5867
5786 5785 5785 5786 5787 5790 5792 5793 5793 5793 5795 5796 5798 5800 5802 5805 5806 5807 5809 5813 5816 5819 5822 5825 5827 5829 5832 5835 5837 5840 5842 5844 5847 5849 5851 5853 5854 5856 5857 5859 5860 5861 5863 5863 5864 5865 5865 5865 5864
5776 5775 5775 5776 5779 5781 5782 5783 5784 5784 5786 5787 5789 5791 5794 5796 5798 5800 5802 5805 5808 5811 5815 5818 5821 5823 5826 5829 5832 5834 5837 5839 5842 5844 5847 5848 5850 5852 5854 5855 5857 5858 5860 5860 5861 5862 5862 5862 5862
5766 5765 5765 5766 5768 5770 5771 5772 5773 5774 5775 5777 5779 5781 5785 5786 5789 5791 5794 5797 5800 5804 5807 5810 5814 5817 5820 5823 5826 5829 5831 5834 5837 5839 5842 5844 5846 5848 5850 5851 5853 5855 5856 5857 5858 5859 5859 5859 5859
5754 5753 5753 5755 5755 5758 5759 5760 5761 5762 5764 5766 5768 5770 5774 5776 5779 5781 5784 5788 5792 5795 5799 5802 5806 5809 5813 5816 5819 5822 5825 5828 5831 5834 5836 5839 5841 5843 5845 5847 5849 5851 5852 5854 5855 5855 5856 5856 5856
5740 5739 5740 5741 5741 5744 5746 5746 5747 5748 5751 5754 5756 5759 5762 5764 5767 5771 5774 5778 5782 5786 5790 5794 5798 5801 5805 5809 5812 5816 5819 5822 5825 5828 5831 5833 5836 5838 5841 5843 5845 5847 5849 5850 5851 5852 5853 5853 5853
5725 5726 5726 5728 5727 5729 5730 5731 5733 5734 5737 5740 5743 5746 5749 5752 5755 5759 5763 5767 5772 5777 5780 5785 5789 5793 5796 5801 5804 5808 5812 5815 5818 5821 5824 5828 5830 5833 5836 5838 5840 5843 5844 5846 5847 5848 5849 5849 5850
5712 5711 5713 5713 5712 5713 5714 5716 5718 5719 5723 5726 5729 5733 5735 5739 5743 5747 5752 5756 5761 5765 5770 5775 5779 5783 5788 5792 5796 5800 5804 5808 5811 5815 5818 5821 5825 5828 5830 5833 5836 5838 5840 5842 5843 5844 5845 5846 5846
5700 5699 5699 5698 5697 5697 5698 5700 5702 5704 5708 5712 5714 5719 5722 5725 5730 5734 5738 5743 5748 5753 5758 5763 5768 5773 5778 5782 5787 5792 5796 5800 5804 5808 5811 5815 5818 5822 5825 5828 5830 5833 5835 5837 5839 5840 5841 5842 5842
5688 5686 5684 5683 5682 5682 5682 5684 5686 5688 5692 5695 5698 5702 5706 5710 5715 5720 5725 5729 5734 5739 5745 5751 5756 5762 5767 5773 5778 5783 5787 5792 5796 5800 5804 5808 5812 5815 5819 5822 5825 5828 5830 5832 5834 5835 5837 5837 5838
5676 5674 5671 5669 5668 5667 5667 5669 5671 5673 5676 5679 5682 5686 5690 5694 5699 5704 5709 5714 5719 5725 5731 5738 5744 5750 5756 5762 5768 5773 5777 5783 5788 5792 5796 5801 5805 5809 5813 5816 5819 5822 5825 5827 5829 5830 5832 5833 5833
5666 5663 5660 5657 5656 5655 5655 5656 5656 5659 5661 5663 5666 5669 5674 5678 5682 5687 5693 5698 5704 5710 5717 5723 5730 5737 5744 5750 5757 5762 5768 5774 5779 5784 5788 5793 5797 5802 5806 5810 5813 5816 5819 5821 5823 5825 5827 5828 5828
5657 5653 5651 5647 5645 5644 5643 5644 5645 5645 5645 5647 5651 5654 5657 5661 5665 5671 5677 5682 5688 5695 5701 5708 5716 5723 5731 5738 5745 5751 5758 5764 5770 5774 5780 5785 5789 5794 5799 5803 5806 5809 5812 5815 5817 5819 5821 5823 5823
5648 5644 5642 5640 5636 5635 5634 5633 5635 5633 5632 5633 5637 5639 5643 5646 5651 5656 5661 5666 5673 5679 5686 5693 5700 5708 5717 5725 5732 5740 5747 5754 5760 5765 5771 5777 5782 5786 5791 5795 5799 5803 5806 5809 5811 5814 5815 5817 5818
5641 5638 5634 5632 5629 5626 5624 5623 5625 5621 5620 5622 5624 5626 5629 5633 5637 5641 5646 5651 5658 5664 5671 5678 5685 5694 5703 5711 5720 5728 5736 5743 5750 5756 5762 5768 5773 5778 5783 5787 5792 5796 5799 5802 5805 5807 5809 5811 5812
5635 5631 5627 5624 5621 5618 5615 5614 5614 5612 5610 5611 5612 5613 5616 5620 5624 5628 5633 5638 5644 5650 5657 5665 5672 5680 5689 5698 5707 5716 5724 5732 5739 5745 5752 5759 5765 5770 5774 5779 5784 5788 5792 5795 5798 5801 5803 5805 5806
5629 5625 5621 5618 5614 5610 5608 5606 5605 5603 5601 5601 5601 5602 5605 5608 5612 5616 5621 5626 5631 5638 5645 5652 5659 5668 5677 5686 5695 5704 5714 5722 5730 5737 5743 5750 5756 5761 5767 5772 5776 5781 5785 5788 5791 5794 5796 5798 5800
5624 5619 5615 5613 5609 5604 5601 5599 5597 5594 5592 5592 5592 5593 5595 5598 5601 5605 5610 5615 5621 5627 5634 5640 5647 5656 5664 5674 5684 5694 5703 5712 5719 5726 5733 5740 5746 5752 5758 5763 5768 5773 5777 5781 5784 5787 5789 5792 5793
5621 5615 5610 5606 5603 5600 5595 5593 5591 5588 5586 5585 5585 5585 5587 5589 5593 5597 5601 5607 5613 5618 5624 5630 5638 5645 5654 5663 5673 5683 5692 5701 5709 5716 5724 5731 5737 5743 5750 5755 5760 5765 5770 5774 5777 5780 5782 5785 5786
5618 5612 5606 5601 5597 5594 5590 5585 5587 5583 5581 5579 5579 5579 5581 5584 5587 5591 5595 5599 5605 5611 5615 5622 5629 5637 5645 5653 5663 5672 5682 5691 5700 5708 5715 5722 5729 5735 5741 5747 5752 5757 5762 5766 5769 5772 5775 5777 5779
5614 5608 5603 5598 5593 5590 5587 5581 5582 5579 5576 5575 5574 5575 5576 5578 5581 5585 5589 5593 5598 5603 5608 5614 5620 5628 5636 5644 5653 5663 5672 5682 5690 5698 5706 5712 5718 5725 5732 5738 5743 5749 5753 5758 5761 5765 5768 5770 5772
5609 5605 5601 5596 5590 5587 5583 5578 5577 5575 5573 5571 5570 5570 5572 5574 5576 5580 5583 5586 5591 5596 5601 5607 5613 5620 5628 5636 5645 5654 5663 5672 5680 5688 5696 5702 5709 5716 5723 5729 5735 5740 5745 5749 5753 5757 5760 5762 5764
5606 5601 5596 5591 5586 5584 5580 5576 5575 5572 5570 5568 5567 5567 5568 5570 5573 5575 5579 5581 5585 5589 5594 5599 5606 5612 5620 5628 5636 5646 5654 5662 5671 5679 5686 5693 5701 5708 5715 5720 5726 5731 5736 5741 5745 5748 5752 5754 5757
5603 5597 5592 5587 5583 5580 5578 5575 5574 5570 5567 5566 5565 5564 5565 5566 5568 5570 5573 5576 5579 5583 5587 5592 5599 5605 5612 5620 5628 5637 5645 5653 5662 5670 5677 5685 5692 5700 5706 5712 5718 5723 5728 5732 5736 5740 5744 5746 5749
5600 5594 5589 5584 5579 5576 5574 5572 5570 5567 5565 5563 5563 5562 5562 5563 5564 5566 5567 5570 5573 5576 5580 5586 5591 5598 5604 5612 5620 5628 5635 5644 5652 5660 5668 5676 5683 5690 5697 5703 5709 5714 5719 5724 5728 5732 5735 5738 5740
5597 5592 5587 5581 5575 5571 5569 5568 5566 5563 5561 5560 5559 5558 5559 5559 5559 5561 5562 5564 5567 5571 5575 5579 5584 5590 5597 5603 5611 5619 5627 5635 5643 5651 5659 5667 5675 5681 5688 5694 5700 5705 5710 5715 5720 5724 5727 5730 5732
5593 5588 5582 5577 5572 5568 5563 5566 5563 5560 5557 5556 5555 5554 5554 5554 5554 5555 5556 5559 5561 5564 5568 5572 5577 5583 5589 5595 5602 5610 5618 5626 5634 5643 5651 5659 5666 5673 5679 5685 5691 5697 5702 5706 5711 5715 5719 5721 5724
5588 5583 5578 5574 5569 5564 5560 5562 5559 5555 5553 5551 5549 5549 5548 5549 5549 5550 5551 5553 5555 5558 5562 5565 5570 5575 5581 5587 5594 5602 5609 5617 5626 5634 5642 5650 5657 5664 5670 5677 5682 5688 5693 5698 5703 5706 5710 5713 5715